Location: Curicchi
(45.0167°N, 12.0500°E)
Time: 13:35:38
(UTC+00:00)

Cosmos 1709 Rocket - Pass Details

Date: 07 June 2020
Orbit: 949 x 1001 km, 82.9° (Epoch: 15 July)

Event Time Altitude Azimuth Distance (km) Brightness Sun altitude
Exits shadow 00:05:02 40° 198° (SSW) 1,379 4.3 -21.1°
Maximum altitude 00:07:26 79° 278° (W) 979 3.9 -21.0°
Drops below altitude 10° 00:13:39 10° 6° (N) 2,714 7.5 -20.7°
Sets 00:16:11 0° 8° (N) 3,673 8.5 -20.6°
